SL-16 DEB, 22426

Orbit data source: Space-Track

SL-16 DEB, 22426 is space debris in LEO originally from a launch on Fri, 25 Dec 1992 UTC launched from the Tyuratam Missile And Space Complex (TTMTR). Debris objects in space refer to the collection of defunct objects orbiting the Earth. Examples of debris include non-operational satellites, rocket bodies, and fragments generated from explosions, collisions, or faulty payload assembly.

Loading next visibility...
Identifier
22426, 1992-093DT
Orbit
LEO
Country
Flag of CISCIS
Related business
Manufacturer
Unknown
Mission
Spacecraft
Bus & Motor
Unknown
Mass
Unknown
Launch date (UTC)
1992-12-25 (33 years ago)
Launch vehicle
Unknown
Launch site
Tyuratam Missile And Space Complex (TTMTR)
Object type
Payload
Rocket body
Debris
Shape & HBR
Unknown shape, 0.2 m
Radar Cross Section
Small (<0.1 m²)

Expand to show TLE details & history
Last TLE update: 1 day ago

TLE from 1 day ago
0 SL-16 DEB
1 22426U 92093DT  25296.64414117  .00004311  00000-0  16128-2 0  9990
2 22426  71.3499  66.9394 0124084 235.4547 138.6935 14.28112536689402
Epoch: 2025-10-23T15:27Z
TLE epoch observation values (Epoch: 2025-10-23T15:27:33.797Z)
Latitude
14.24637°
Longitude
167.63818°
Altitude
867.13 km
Speed
7.385 km/s
True Right ascension
04h 47m 19s
True Declination
14° 09' 57"
Sunlit
Object was in full shadow at epoch
Visualization orbit readout
Latitude
Unknown
Longitude
Unknown
Altitude
Unknown
Speed
Unknown
Apparent Right ascension
Unknown
Apparent Declination
Unknown
Sunlit
N/A
Visualization observer readout
Local Sidereal Time
12:58:35
Azimuth
Unknown
Elevation
Unknown
Doppler factor
Unknown
Orbital elements
Apogee altitude
884.943 km
Perigee altitude
706.905 km
Semi-major axis
7,174.061 km
Eccentricity
0.01241
Inclination
71.3499°
RAAN
66.9394°
Arg. of periapsis
235.4547°
True anomaly
139.62122°
Mean anomaly
138.6935°
Eccentric anomaly
139.15844°
Mean motion
3.57187 °/min
Orbital period
100.79 mins
BSTAR
0.0016128
Loading maneuver chart data...
Computing Atmospheric mass density...

Documentation

Showing up to 5 results
|